Location: Sungai Bunut
(2.6333°N, 113.7333°E)
Time: 16:39:52
(UTC+00:00)

Altair - Pass Details

Date: 11 December 2023
Orbit: 1501 x 1682 km, 47.2° (Epoch: 24 February)

Event Time Altitude Azimuth Distance (km) Brightness Sun altitude
Rises 07:10:25 0° 327° (NNW) 4,632 10.0 40.8°
Reaches altitude 10° 07:13:29 10° 330° (NNW) 3,645 9.6 40.2°
Maximum altitude 07:22:30 63° 50° (NE) 1,643 7.9 38.3°
Drops below altitude 10° 07:31:37 10° 130° (SE) 3,688 9.4 36.4°
Sets 07:34:44 0° 133° (SE) 4,690 9.9 35.7°
